| time (UTC) | temp F | wind direction | speed MPH | gust MPH | rain 1hr in | rain 24hr in | rain mn in | humidity % | barometer mb |
| 20260903235037 | 95 | 322 | 0.0 | 1.0 | 0.00 | 0.00 | 0.00 | 53 | 1015.1 |
| 20260903234532 | 96 | 322 | 0.0 | 0.0 | 0.00 | 0.00 | 0.00 | 52 | 1014.9 |
| 20260903234028 | 96 | 309 | 0.0 | 1.0 | 0.00 | 0.00 | 0.00 | 52 | 1015.2 |
| 20260903233524 | 96 | 326 | 0.0 | 1.0 | 0.00 | 0.00 | 0.00 | 51 | 1015.4 |
| 20260903233019 | 96 | 154 | 0.0 | 2.0 | 0.00 | 0.00 | 0.00 | 46 | 1015.2 |
| 20260903232515 | 97 | 284 | 0.0 | 1.0 | 0.00 | 0.00 | 0.00 | 47 | 1015.1 |
| 20260903232015 | 97 | 192 | 1.0 | 3.0 | 0.00 | 0.00 | 0.00 | 46 | 1015.1 |
| 20260903231509 | 98 | 207 | 3.0 | 5.0 | 0.00 | 0.00 | 0.00 | 45 | 1015.1 |
| 20260903231004 | 97 | 44 | 0.0 | 1.0 | 0.00 | 0.00 | 0.00 | 44 | 1014.9 |
| 20260903230500 | 97 | 126 | 1.0 | 6.0 | 0.00 | 0.00 | 0.00 | 44 | 1015.1 |
| 20260903225956 | 97 | 283 | 0.0 | 4.0 | 0.00 | 0.00 | 0.00 | 51 | 1015.1 |
| 20260903225451 | 98 | 230 | 0.0 | 2.0 | 0.00 | 0.00 | 0.00 | 47 | 1014.9 |
| 20260903224948 | 100 | 218 | 1.0 | 4.0 | 0.00 | 0.00 | 0.00 | 42 | 1015.0 |
| 20260903224443 | 101 | 253 | 3.0 | 3.0 | 0.00 | 0.00 | 0.00 | 40 | 1014.9 |
| 20260903223939 | 101 | 287 | 0.0 | 2.0 | 0.00 | 0.00 | 0.00 | 43 | 1015.1 |
| 20260903223438 | 103 | 297 | 1.0 | 3.0 | 0.00 | 0.00 | 0.00 | 41 | 1015.2 |
| 20260903222937 | 101 | 293 | 0.0 | 2.0 | 0.00 | 0.00 | 0.00 | 43 | 1015.1 |
| 20260903222433 | 100 | 185 | 0.0 | 2.0 | 0.00 | 0.00 | 0.00 | 42 | 1015.2 |
| 20260903221931 | 104 | 212 | 0.0 | 2.0 | 0.00 | 0.00 | 0.00 | 39 | 1015.2 |
| 20260903221426 | 102 | 250 | 2.0 | 2.0 | 0.00 | 0.00 | 0.00 | 40 | 1015.0 |
| 20260903220923 | 104 | 254 | 1.0 | 2.0 | 0.00 | 0.00 | 0.00 | 40 | 1015.1 |
| 20260903220418 | 103 | 253 | 2.0 | 3.0 | 0.00 | 0.00 | 0.00 | 39 | 1015.2 |
| 20260903215915 | 101 | 198 | 2.0 | 8.0 | 0.00 | 0.00 | 0.00 | 41 | 1015.2 |
| 20260903215413 | 102 | 126 | 0.0 | 4.0 | 0.00 | 0.00 | 0.00 | 40 | 1015.4 |
| 20260903214911 | 101 | 126 | 4.0 | 5.0 | 0.00 | 0.00 | 0.00 | 42 | 1015.1 |
| 20260903214407 | 100 | 173 | 2.0 | 3.0 | 0.00 | 0.00 | 0.00 | 42 | 1015.1 |
| 20260903213907 | 101 | 292 | 2.0 | 2.0 | 0.00 | 0.00 | 0.00 | 42 | 1015.2 |
| 20260903213402 | 103 | 191 | 0.0 | 2.0 | 0.00 | 0.00 | 0.00 | 41 | 1015.4 |
| 20260903212858 | 100 | 233 | 0.0 | 2.0 | 0.00 | 0.00 | 0.00 | 42 | 1015.5 |
| 20260903212353 | 101 | 190 | 0.0 | 2.0 | 0.00 | 0.00 | 0.00 | 42 | 1015.2 |
| 20260903211853 | 103 | 244 | 2.0 | 4.0 | 0.00 | 0.00 | 0.00 | 41 | 1015.6 |
| 20260903211348 | 105 | 139 | 2.0 | 3.0 | 0.00 | 0.00 | 0.00 | 39 | 1015.4 |
| 20260903210844 | 104 | 180 | 1.0 | 4.0 | 0.00 | 0.00 | 0.00 | 40 | 1015.6 |
| 20260903210339 | 101 | 146 | 1.0 | 4.0 | 0.00 | 0.00 | 0.00 | 40 | 1015.5 |
| 20260903205839 | 104 | 169 | 2.0 | 4.0 | 0.00 | 0.00 | 0.00 | 39 | 1015.5 |
| 20260903205338 | 103 | 219 | 1.0 | 5.0 | 0.00 | 0.00 | 0.00 | 41 | 1015.6 |
| 20260903204834 | 102 | 224 | 2.0 | 3.0 | 0.00 | 0.00 | 0.00 | 40 | 1015.7 |
| 20260903204330 | 105 | 152 | 3.0 | 6.0 | 0.00 | 0.00 | 0.00 | 37 | 1015.7 |
| 20260903203825 | 106 | 245 | 1.0 | 3.0 | 0.00 | 0.00 | 0.00 | 39 | 1015.7 |
| 20260903203321 | 102 | 254 | 2.0 | 4.0 | 0.00 | 0.00 | 0.00 | 42 | 1015.7 |
| 20260903202820 | 105 | 262 | 3.0 | 4.0 | 0.00 | 0.00 | 0.00 | 37 | 1015.9 |
| 20260903202317 | 104 | 215 | 1.0 | 5.0 | 0.00 | 0.00 | 0.00 | 38 | 1016.0 |
| 20260903201816 | 104 | 216 | 0.0 | 7.0 | 0.00 | 0.00 | 0.00 | 40 | 1016.0 |
| 20260903201311 | 104 | 275 | 1.0 | 3.0 | 0.00 | 0.00 | 0.00 | 41 | 1016.1 |
| 20260903200809 | 104 | 112 | 5.0 | 7.0 | 0.00 | 0.00 | 0.00 | 40 | 1016.0 |
| 20260903200305 | 102 | 191 | 2.0 | 9.0 | 0.00 | 0.00 | 0.00 | 41 | 1016.1 |
| 20260903195800 | 103 | 220 | 2.0 | 4.0 | 0.00 | 0.00 | 0.00 | 40 | 1016.2 |
| 20260903195256 | 104 | 101 | 1.0 | 4.0 | 0.00 | 0.00 | 0.00 | 40 | 1016.3 |
| 20260903194751 | 103 | 220 | 2.0 | 8.0 | 0.00 | 0.00 | 0.00 | 41 | 1016.4 |
| 20260903194247 | 102 | 220 | 2.0 | 4.0 | 0.00 | 0.00 | 0.00 | 41 | 1016.2 |
| 20260903193742 | 104 | 308 | 4.0 | 7.0 | 0.00 | 0.00 | 0.00 | 40 | 1016.6 |
| 20260903193237 | 103 | 178 | 1.0 | 2.0 | 0.00 | 0.00 | 0.00 | 39 | 1016.5 |
| 20260903192734 | 102 | 222 | 2.0 | 9.0 | 0.00 | 0.00 | 0.00 | 42 | 1016.7 |
| 20260903192229 | 103 | 145 | 3.0 | 6.0 | 0.00 | 0.00 | 0.00 | 41 | 1016.8 |
| 20260903191725 | 103 | 160 | 3.0 | 9.0 | 0.00 | 0.00 | 0.00 | 42 | 1016.9 |
| 20260903191221 | 101 | 251 | 2.0 | 5.0 | 0.00 | 0.00 | 0.00 | 44 | 1016.8 |
| 20260903190715 | 102 | 236 | 1.0 | 9.0 | 0.00 | 0.00 | 0.00 | 44 | 1016.9 |
| 20260903190215 | 102 | 262 | 0.0 | 7.0 | 0.00 | 0.00 | 0.00 | 45 | 1016.9 |
| 20260903185710 | 102 | 245 | 2.0 | 3.0 | 0.00 | 0.00 | 0.00 | 42 | 1016.9 |
| 20260903185204 | 101 | 213 | 2.0 | 6.0 | 0.00 | 0.00 | 0.00 | 44 | 1017.3 |
| 20260903184701 | 103 | 265 | 2.0 | 3.0 | 0.00 | 0.00 | 0.00 | 45 | 1017.0 |
| 20260903184157 | 100 | 204 | 2.0 | 6.0 | 0.00 | 0.00 | 0.00 | 45 | 1017.1 |
| 20260903183655 | 100 | 239 | 2.0 | 8.0 | 0.00 | 0.00 | 0.00 | 46 | 1017.1 |
| 20260903183151 | 101 | 246 | 2.0 | 3.0 | 0.00 | 0.00 | 0.00 | 47 | 1017.2 |
| 20260903182649 | 99 | 307 | 1.0 | 5.0 | 0.00 | 0.00 | 0.00 | 47 | 1017.3 |
| 20260903182145 | 98 | 228 | 4.0 | 7.0 | 0.00 | 0.00 | 0.00 | 46 | 1017.5 |
| 20260903181643 | 99 | 243 | 1.0 | 5.0 | 0.00 | 0.00 | 0.00 | 46 | 1017.6 |
| 20260903181138 | 99 | 208 | 0.0 | 6.0 | 0.00 | 0.00 | 0.00 | 49 | 1017.4 |
| 20260903180634 | 99 | 246 | 2.0 | 4.0 | 0.00 | 0.00 | 0.00 | 48 | 1017.7 |
| 20260903180133 | 97 | 260 | 5.0 | 6.0 | 0.00 | 0.00 | 0.00 | 49 | 1017.7 |
| 20260903175632 | 97 | 274 | 4.0 | 6.0 | 0.00 | 0.00 | 0.00 | 48 | 1017.9 |
| 20260903175127 | 98 | 252 | 3.0 | 8.0 | 0.00 | 0.00 | 0.00 | 47 | 1017.9 |
| 20260903174622 | 98 | 265 | 4.0 | 6.0 | 0.00 | 0.00 | 0.00 | 47 | 1018.1 |
| 20260903174116 | 98 | 265 | 3.0 | 6.0 | 0.00 | 0.00 | 0.00 | 46 | 1018.1 |
| 20260903173611 | 100 | 254 | 2.0 | 4.0 | 0.00 | 0.00 | 0.00 | 46 | 1018.0 |
| 20260903173108 | 99 | 191 | 0.0 | 4.0 | 0.00 | 0.00 | 0.00 | 50 | 1018.0 |
| 20260903172602 | 98 | 261 | 2.0 | 4.0 | 0.00 | 0.00 | 0.00 | 47 | 1018.0 |
| 20260903172058 | 97 | 286 | 3.0 | 7.0 | 0.00 | 0.00 | 0.00 | 49 | 1018.0 |
| 20260903171557 | 97 | 183 | 2.0 | 10.0 | 0.00 | 0.00 | 0.00 | 49 | 1018.1 |
| 20260903171053 | 99 | 267 | 3.0 | 5.0 | 0.00 | 0.00 | 0.00 | 50 | 1018.1 |
| 20260903170552 | 97 | 337 | 1.0 | 6.0 | 0.00 | 0.00 | 0.00 | 50 | 1018.2 |
| 20260903170048 | 98 | 215 | 3.0 | 4.0 | 0.00 | 0.00 | 0.00 | 50 | 1018.2 |
| 20260903165544 | 95 | 312 | 2.0 | 4.0 | 0.00 | 0.00 | 0.00 | 53 | 1018.2 |
| 20260903165040 | 95 | 237 | 2.0 | 5.0 | 0.00 | 0.00 | 0.00 | 52 | 1018.2 |
| 20260903164535 | 96 | 282 | 3.0 | 7.0 | 0.00 | 0.00 | 0.00 | 52 | 1018.2 |
| 20260903164031 | 96 | 253 | 2.0 | 6.0 | 0.00 | 0.00 | 0.00 | 52 | 1018.3 |
| 20260903163526 | 96 | 284 | 4.0 | 7.0 | 0.00 | 0.00 | 0.00 | 51 | 1018.3 |
| 20260903163021 | 96 | 132 | 2.0 | 6.0 | 0.00 | 0.00 | 0.00 | 51 | 1018.3 |
| 20260903162518 | 95 | 235 | 2.0 | 7.0 | 0.00 | 0.00 | 0.00 | 52 | 1018.3 |
| 20260903162013 | 95 | 219 | 6.0 | 7.0 | 0.00 | 0.00 | 0.00 | 51 | 1018.4 |
| 20260903161508 | 95 | 262 | 3.0 | 5.0 | 0.00 | 0.00 | 0.00 | 54 | 1018.4 |
| 20260903161005 | 95 | 239 | 2.0 | 8.0 | 0.00 | 0.00 | 0.00 | 52 | 1018.3 |
| 20260903160503 | 95 | 237 | 3.0 | 7.0 | 0.00 | 0.00 | 0.00 | 55 | 1018.5 |
| 20260903160003 | 93 | 269 | 0.0 | 5.0 | 0.00 | 0.00 | 0.00 | 57 | 1018.5 |
| 20260903155457 | 93 | 263 | 3.0 | 6.0 | 0.00 | 0.00 | 0.00 | 57 | 1018.4 |
| 20260903154953 | 93 | 173 | 2.0 | 5.0 | 0.00 | 0.00 | 0.00 | 57 | 1018.4 |
| 20260903154448 | 93 | 230 | 2.0 | 6.0 | 0.00 | 0.00 | 0.00 | 58 | 1018.5 |
| 20260903153944 | 92 | 285 | 2.0 | 6.0 | 0.00 | 0.00 | 0.00 | 60 | 1018.7 |
| 20260903153440 | 93 | 266 | 1.0 | 4.0 | 0.00 | 0.00 | 0.00 | 59 | 1018.4 |
| 20260903152936 | 93 | 120 | 2.0 | 4.0 | 0.00 | 0.00 | 0.00 | 59 | 1018.5 |
| 20260903152432 | 93 | 140 | 1.0 | 7.0 | 0.00 | 0.00 | 0.00 | 59 | 1018.6 |
| 20260903151927 | 92 | 199 | 1.0 | 3.0 | 0.00 | 0.00 | 0.00 | 60 | 1018.6 |
| 20260903151427 | 91 | 247 | 4.0 | 9.0 | 0.00 | 0.00 | 0.00 | 61 | 1018.5 |
| 20260903150921 | 91 | 249 | 0.0 | 5.0 | 0.00 | 0.00 | 0.00 | 62 | 1018.4 |
| 20260903150411 | 90 | 225 | 5.0 | 7.0 | 0.00 | 0.00 | 0.00 | 63 | 1018.4 |
| 20260903145906 | 89 | 329 | 1.0 | 4.0 | 0.00 | 0.00 | 0.00 | 65 | 1018.5 |
| 20260903145401 | 90 | 279 | 1.0 | 4.0 | 0.00 | 0.00 | 0.00 | 64 | 1018.4 |
| 20260903144900 | 90 | 189 | 0.0 | 6.0 | 0.00 | 0.00 | 0.00 | 64 | 1018.6 |
| 20260903144355 | 90 | 283 | 0.0 | 3.0 | 0.00 | 0.00 | 0.00 | 65 | 1018.4 |
| 20260903143850 | 90 | 168 | 1.0 | 5.0 | 0.00 | 0.00 | 0.00 | 64 | 1018.7 |
| 20260903143347 | 89 | 252 | 0.0 | 3.0 | 0.00 | 0.00 | 0.00 | 66 | 1018.5 |
| 20260903142842 | 88 | 228 | 0.0 | 7.0 | 0.00 | 0.00 | 0.00 | 65 | 1018.4 |
| 20260903142338 | 88 | 274 | 0.0 | 4.0 | 0.00 | 0.00 | 0.00 | 67 | 1018.5 |
| 20260903141834 | 87 | 285 | 1.0 | 4.0 | 0.00 | 0.00 | 0.00 | 68 | 1018.6 |
| 20260903141329 | 86 | 142 | 3.0 | 5.0 | 0.00 | 0.00 | 0.00 | 69 | 1018.6 |
| 20260903140824 | 85 | 209 | 2.0 | 6.0 | 0.00 | 0.00 | 0.00 | 70 | 1018.6 |
| 20260903140319 | 85 | 216 | 1.0 | 3.0 | 0.00 | 0.00 | 0.00 | 73 | 1018.6 |
| 20260903135815 | 84 | 305 | 2.0 | 4.0 | 0.00 | 0.00 | 0.00 | 73 | 1018.5 |
| 20260903135310 | 84 | 143 | 3.0 | 5.0 | 0.00 | 0.00 | 0.00 | 73 | 1018.7 |
| 20260903134809 | 83 | 130 | 0.0 | 3.0 | 0.00 | 0.00 | 0.00 | 76 | 1018.5 |
| 20260903134305 | 82 | 350 | 1.0 | 5.0 | 0.00 | 0.00 | 0.00 | 76 | 1018.4 |
| 20260903133802 | 82 | 166 | 0.0 | 2.0 | 0.00 | 0.00 | 0.00 | 77 | 1018.8 |
| 20260903133258 | 82 | 322 | 0.0 | 3.0 | 0.00 | 0.00 | 0.00 | 77 | 1018.5 |
| 20260903132753 | 80 | 184 | 1.0 | 2.0 | 0.00 | 0.00 | 0.00 | 80 | 1018.4 |
| 20260903132248 | 80 | 131 | 0.0 | 1.0 | 0.00 | 0.00 | 0.00 | 83 | 1018.6 |
| 20260903131743 | 79 | 169 | 2.0 | 2.0 | 0.00 | 0.00 | 0.00 | 84 | 1018.5 |
| 20260903131242 | 79 | 99 | 0.0 | 2.0 | 0.00 | 0.00 | 0.00 | 84 | 1018.4 |
| 20260903130737 | 77 | 15 | 0.0 | 2.0 | 0.00 | 0.00 | 0.00 | 86 | 1018.4 |
| 20260903130232 | 77 | 269 | 0.0 | 2.0 | 0.00 | 0.00 | 0.00 | 89 | 1018.5 |
| 20260903125730 | 76 | 62 | 0.0 | 1.0 | 0.00 | 0.00 | 0.00 | 90 | 1018.5 |
| 20260903125226 | 76 | 174 | 0.0 | 2.0 | 0.00 | 0.00 | 0.00 | 91 | 1018.4 |
| 20260903124725 | 75 | 174 | 0.0 | 1.0 | 0.00 | 0.00 | 0.00 | 92 | 1018.6 |
| 20260903124221 | 75 | 156 | 0.0 | 2.0 | 0.00 | 0.00 | 0.00 | 92 | 1018.3 |
| 20260903123719 | 75 | 102 | 0.0 | 1.0 | 0.00 | 0.00 | 0.00 | 92 | 1018.4 |
| 20260903123218 | 75 | 44 | 0.0 | 1.0 | 0.00 | 0.00 | 0.00 | 92 | 1018.5 |
| 20260903122717 | 75 | 217 | 0.0 | 2.0 | 0.00 | 0.00 | 0.00 | 93 | 1018.4 |
| 20260903122213 | 74 | 44 | 0.0 | 1.0 | 0.00 | 0.00 | 0.00 | 92 | 1018.5 |
| 20260903121711 | 74 | 49 | 0.0 | 1.0 | 0.00 | 0.00 | 0.00 | 92 | 1018.2 |
| 20260903121207 | 74 | 124 | 0.0 | 0.0 | 0.00 | 0.00 | 0.00 | 92 | 1018.3 |
| 20260903120706 | 74 | 135 | 0.0 | 2.0 | 0.00 | 0.00 | 0.00 | 92 | 1018.2 |
| 20260903120200 | 74 | 195 | 0.0 | 2.0 | 0.00 | 0.00 | 0.00 | 92 | 1018.2 |
| 20260903115658 | 74 | 186 | 0.0 | 3.0 | 0.00 | 0.00 | 0.00 | 92 | 1018.0 |
| 20260903115154 | 74 | 231 | 0.0 | 2.0 | 0.00 | 0.00 | 0.00 | 92 | 1017.9 |
| 20260903114649 | 74 | 50 | 0.0 | 1.0 | 0.00 | 0.00 | 0.00 | 92 | 1018.0 |
| 20260903114144 | 74 | 101 | 1.0 | 2.0 | 0.00 | 0.00 | 0.00 | 92 | 1018.1 |
| 20260903113639 | 74 | 104 | 1.0 | 2.0 | 0.00 | 0.00 | 0.00 | 92 | 1018.0 |
| 20260903113136 | 74 | 37 | 0.0 | 2.0 | 0.00 | 0.00 | 0.00 | 92 | 1018.1 |
| 20260903112631 | 74 | 124 | 0.0 | 3.0 | 0.00 | 0.00 | 0.00 | 92 | 1017.9 |
| 20260903112126 | 74 | 134 | 0.0 | 1.0 | 0.00 | 0.00 | 0.00 | 92 | 1018.2 |
| 20260903111625 | 75 | 205 | 0.0 | 2.0 | 0.00 | 0.00 | 0.00 | 92 | 1017.9 |
| 20260903111121 | 74 | 87 | 0.0 | 3.0 | 0.00 | 0.00 | 0.00 | 92 | 1017.9 |
| 20260903110616 | 75 | 119 | 0.0 | 2.0 | 0.00 | 0.00 | 0.00 | 91 | 1018.0 |
| 20260903110112 | 75 | 131 | 0.0 | 3.0 | 0.00 | 0.00 | 0.00 | 91 | 1018.0 |
| 20260903105607 | 75 | 124 | 0.0 | 2.0 | 0.00 | 0.00 | 0.00 | 91 | 1017.7 |
| 20260903105101 | 75 | 180 | 0.0 | 2.0 | 0.00 | 0.00 | 0.00 | 91 | 1017.7 |
| 20260903104601 | 75 | 138 | 2.0 | 2.0 | 0.00 | 0.00 | 0.00 | 91 | 1017.8 |
| 20260903104052 | 75 | 185 | 0.0 | 2.0 | 0.00 | 0.00 | 0.00 | 91 | 1017.9 |
| 20260903103547 | 75 | 129 | 0.0 | 3.0 | 0.00 | 0.00 | 0.00 | 91 | 1017.7 |
| 20260903103043 | 75 | 130 | 0.0 | 1.0 | 0.00 | 0.00 | 0.00 | 90 | 1017.6 |
| 20260903102538 | 75 | 124 | 0.0 | 2.0 | 0.00 | 0.00 | 0.00 | 90 | 1017.6 |
| 20260903102031 | 75 | 173 | 0.0 | 2.0 | 0.00 | 0.00 | 0.00 | 90 | 1017.6 |
| 20260903101526 | 75 | 50 | 0.0 | 2.0 | 0.00 | 0.00 | 0.00 | 89 | 1017.6 |
| 20260903101021 | 75 | 150 | 0.0 | 1.0 | 0.00 | 0.00 | 0.00 | 89 | 1017.6 |
| 20260903100516 | 75 | 129 | 0.0 | 1.0 | 0.00 | 0.00 | 0.00 | 89 | 1017.7 |
| 20260903100015 | 76 | 140 | 2.0 | 2.0 | 0.00 | 0.00 | 0.00 | 89 | 1017.5 |
| 20260903095514 | 76 | 272 | 1.0 | 3.0 | 0.00 | 0.00 | 0.00 | 89 | 1017.7 |
| 20260903095009 | 76 | 89 | 0.0 | 2.0 | 0.00 | 0.00 | 0.00 | 88 | 1017.6 |
| 20260903094508 | 76 | 193 | 1.0 | 3.0 | 0.00 | 0.00 | 0.00 | 88 | 1017.5 |
| 20260903094004 | 76 | 205 | 0.0 | 2.0 | 0.00 | 0.00 | 0.00 | 89 | 1017.7 |
| 20260903093459 | 76 | 25 | 0.0 | 2.0 | 0.00 | 0.00 | 0.00 | 89 | 1017.7 |
| 20260903092954 | 76 | 50 | 0.0 | 1.0 | 0.00 | 0.00 | 0.00 | 89 | 1017.7 |
| 20260903092454 | 76 | 52 | 1.0 | 2.0 | 0.00 | 0.00 | 0.00 | 89 | 1017.5 |
| 20260903091954 | 76 | 111 | 1.0 | 2.0 | 0.00 | 0.00 | 0.00 | 89 | 1017.7 |
| 20260903091451 | 76 | 205 | 0.0 | 2.0 | 0.00 | 0.00 | 0.00 | 88 | 1017.8 |
| 20260903090947 | 77 | 108 | 1.0 | 1.0 | 0.00 | 0.00 | 0.00 | 87 | 1017.6 |
| 20260903090443 | 77 | 142 | 0.0 | 1.0 | 0.00 | 0.00 | 0.00 | 87 | 1017.6 |
| 20260903085941 | 77 | 104 | 0.0 | 2.0 | 0.00 | 0.00 | 0.00 | 87 | 1017.6 |
| 20260903085439 | 77 | 242 | 0.0 | 2.0 | 0.00 | 0.00 | 0.00 | 87 | 1017.6 |
| 20260903084939 | 77 | 24 | 0.0 | 1.0 | 0.00 | 0.00 | 0.00 | 86 | 1017.5 |
| 20260903084438 | 77 | 142 | 0.0 | 1.0 | 0.00 | 0.00 | 0.00 | 85 | 1017.6 |
| 20260903083933 | 78 | 150 | 0.0 | 2.0 | 0.00 | 0.00 | 0.00 | 85 | 1017.6 |
| 20260903083429 | 78 | 135 | 0.0 | 1.0 | 0.00 | 0.00 | 0.00 | 84 | 1017.5 |
| 20260903082928 | 78 | 168 | 0.0 | 2.0 | 0.00 | 0.00 | 0.00 | 81 | 1017.5 |
| 20260903082423 | 78 | 131 | 1.0 | 2.0 | 0.00 | 0.00 | 0.00 | 84 | 1017.5 |
| 20260903081918 | 78 | 154 | 1.0 | 2.0 | 0.00 | 0.00 | 0.00 | 85 | 1017.6 |
| 20260903081413 | 78 | 173 | 0.0 | 2.0 | 0.00 | 0.00 | 0.00 | 84 | 1017.6 |
| 20260903080910 | 77 | 117 | 0.0 | 1.0 | 0.00 | 0.00 | 0.00 | 87 | 1017.7 |
| 20260903080406 | 77 | 132 | 2.0 | 2.0 | 0.00 | 0.00 | 0.00 | 87 | 1017.7 |
| 20260903075901 | 77 | 137 | 1.0 | 2.0 | 0.00 | 0.00 | 0.00 | 87 | 1017.4 |
| 20260903075357 | 77 | 145 | 0.0 | 1.0 | 0.00 | 0.00 | 0.00 | 87 | 1017.5 |
| 20260903074856 | 77 | 142 | 0.0 | 1.0 | 0.00 | 0.00 | 0.00 | 86 | 1017.2 |
| 20260903074350 | 77 | 142 | 0.0 | 1.0 | 0.00 | 0.00 | 0.00 | 87 | 1017.5 |
| 20260903073846 | 77 | 142 | 0.0 | 3.0 | 0.00 | 0.00 | 0.00 | 88 | 1017.5 |
| 20260903073341 | 77 | 135 | 0.0 | 2.0 | 0.00 | 0.00 | 0.00 | 88 | 1017.5 |
| 20260903072837 | 77 | 157 | 0.0 | 1.0 | 0.00 | 0.00 | 0.00 | 87 | 1017.6 |
| 20260903072333 | 77 | 129 | 0.0 | 2.0 | 0.00 | 0.00 | 0.00 | 87 | 1017.5 |
| 20260903071829 | 77 | 113 | 0.0 | 1.0 | 0.00 | 0.00 | 0.00 | 87 | 1017.5 |
| 20260903071325 | 77 | 109 | 1.0 | 2.0 | 0.00 | 0.00 | 0.00 | 88 | 1017.6 |
| 20260903070820 | 77 | 109 | 0.0 | 1.0 | 0.00 | 0.00 | 0.00 | 87 | 1017.5 |
| 20260903070316 | 77 | 132 | 0.0 | 2.0 | 0.00 | 0.00 | 0.00 | 86 | 1017.4 |
| 20260903065816 | 77 | 127 | 0.0 | 1.0 | 0.00 | 0.00 | 0.00 | 87 | 1017.5 |
| 20260903065310 | 77 | 142 | 0.0 | 1.0 | 0.00 | 0.00 | 0.00 | 87 | 1017.7 |
| 20260903064809 | 77 | 128 | 0.0 | 2.0 | 0.00 | 0.00 | 0.00 | 87 | 1017.7 |
| 20260903064304 | 77 | 159 | 0.0 | 1.0 | 0.00 | 0.00 | 0.00 | 87 | 1017.6 |
| 20260903063800 | 77 | 142 | 0.0 | 1.0 | 0.00 | 0.00 | 0.00 | 86 | 1017.4 |
| 20260903063254 | 78 | 129 | 0.0 | 1.0 | 0.00 | 0.00 | 0.00 | 86 | 1017.6 |
| 20260903062751 | 78 | 142 | 0.0 | 1.0 | 0.00 | 0.00 | 0.00 | 86 | 1017.7 |
| 20260903062250 | 78 | 119 | 0.0 | 1.0 | 0.00 | 0.00 | 0.00 | 85 | 1017.8 |
| 20260903061747 | 78 | 129 | 0.0 | 1.0 | 0.00 | 0.00 | 0.00 | 86 | 1017.6 |
| 20260903061245 | 78 | 139 | 0.0 | 2.0 | 0.00 | 0.00 | 0.00 | 85 | 1017.7 |
| 20260903060742 | 78 | 127 | 0.0 | 1.0 | 0.00 | 0.00 | 0.00 | 85 | 1017.6 |
| 20260903060241 | 78 | 129 | 0.0 | 1.0 | 0.00 | 0.00 | 0.00 | 85 | 1017.7 |
| 20260903055738 | 78 | 157 | 0.0 | 1.0 | 0.00 | 0.00 | 0.00 | 85 | 1017.5 |
| 20260903055237 | 79 | 117 | 0.0 | 1.0 | 0.00 | 0.00 | 0.00 | 84 | 1017.4 |
| 20260903054732 | 79 | 154 | 0.0 | 1.0 | 0.00 | 0.00 | 0.00 | 84 | 1017.5 |
| 20260903054227 | 79 | 142 | 0.0 | 0.0 | 0.00 | 0.00 | 0.00 | 84 | 1017.3 |
| 20260903053724 | 79 | 168 | 0.0 | 1.0 | 0.00 | 0.00 | 0.00 | 84 | 1017.4 |
| 20260903053224 | 79 | 147 | 0.0 | 1.0 | 0.00 | 0.00 | 0.00 | 84 | 1017.7 |
| 20260903052719 | 79 | 137 | 0.0 | 1.0 | 0.00 | 0.00 | 0.00 | 84 | 1017.8 |
| 20260903052215 | 79 | 142 | 0.0 | 2.0 | 0.00 | 0.00 | 0.00 | 83 | 1017.5 |
| 20260903051710 | 80 | 89 | 0.0 | 0.0 | 0.00 | 0.00 | 0.00 | 81 | 1017.7 |
| 20260903051206 | 80 | 89 | 0.0 | 1.0 | 0.00 | 0.00 | 0.00 | 81 | 1017.5 |
| 20260903050701 | 80 | 117 | 0.0 | 1.0 | 0.00 | 0.00 | 0.00 | 79 | 1017.4 |
| 20260903050200 | 80 | 135 | 0.0 | 1.0 | 0.00 | 0.00 | 0.00 | 80 | 1017.6 |
| 20260903045655 | 81 | 89 | 0.0 | 1.0 | 0.00 | 0.00 | 0.00 | 79 | 1017.4 |
| 20260903045152 | 81 | 205 | 0.0 | 0.0 | 0.00 | 0.00 | 0.00 | 77 | 1017.4 |
| 20260903044648 | 82 | 150 | 0.0 | 1.0 | 0.00 | 0.00 | 0.00 | 77 | 1017.3 |
| 20260903044143 | 82 | 180 | 0.0 | 1.0 | 0.00 | 0.00 | 0.00 | 76 | 1017.4 |
| 20260903043640 | 83 | 142 | 0.0 | 2.0 | 0.00 | 0.00 | 0.00 | 77 | 1017.4 |
| 20260903043133 | 83 | 150 | 0.0 | 1.0 | 0.00 | 0.00 | 0.00 | 75 | 1017.4 |
| 20260903042632 | 84 | 160 | 0.0 | 1.0 | 0.00 | 0.00 | 0.00 | 73 | 1017.4 |
| 20260903042128 | 84 | 269 | 0.0 | 1.0 | 0.00 | 0.00 | 0.00 | 72 | 1017.5 |
| 20260903041624 | 84 | 205 | 0.0 | 2.0 | 0.00 | 0.00 | 0.00 | 74 | 1017.3 |
| 20260903041120 | 84 | 322 | 0.0 | 1.0 | 0.00 | 0.00 | 0.00 | 73 | 1017.5 |
| 20260903040618 | 84 | 147 | 0.0 | 3.0 | 0.00 | 0.00 | 0.00 | 73 | 1017.3 |
| 20260903040115 | 83 | 258 | 0.0 | 1.0 | 0.00 | 0.00 | 0.00 | 76 | 1017.4 |
| 20260903035610 | 83 | 15 | 0.0 | 1.0 | 0.00 | 0.00 | 0.00 | 74 | 1017.4 |
| 20260903035106 | 83 | 164 | 0.0 | 1.0 | 0.00 | 0.00 | 0.00 | 76 | 1017.4 |
| 20260903034601 | 83 | 166 | 0.0 | 1.0 | 0.00 | 0.00 | 0.00 | 77 | 1017.5 |
| 20260903034056 | 83 | 186 | 0.0 | 1.0 | 0.00 | 0.00 | 0.00 | 76 | 1017.5 |
| 20260903033551 | 83 | 117 | 0.0 | 1.0 | 0.00 | 0.00 | 0.00 | 75 | 1017.6 |
| 20260903033046 | 83 | 151 | 0.0 | 1.0 | 0.00 | 0.00 | 0.00 | 77 | 1017.5 |
| 20260903032541 | 83 | 101 | 0.0 | 1.0 | 0.00 | 0.00 | 0.00 | 76 | 1017.5 |
| 20260903032037 | 83 | 134 | 0.0 | 1.0 | 0.00 | 0.00 | 0.00 | 76 | 1017.5 |
| 20260903031536 | 83 | 300 | 0.0 | 2.0 | 0.00 | 0.00 | 0.00 | 76 | 1017.3 |
| 20260903031032 | 84 | 246 | 0.0 | 1.0 | 0.00 | 0.00 | 0.00 | 74 | 1017.5 |
| 20260903030527 | 84 | 173 | 0.0 | 1.0 | 0.00 | 0.00 | 0.00 | 72 | 1017.4 |
| 20260903030023 | 84 | 160 | 0.0 | 1.0 | 0.00 | 0.00 | 0.00 | 73 | 1017.3 |
| 20260903025518 | 85 | 135 | 0.0 | 1.0 | 0.00 | 0.00 | 0.00 | 73 | 1017.5 |
| 20260903025014 | 85 | 291 | 0.0 | 2.0 | 0.00 | 0.00 | 0.00 | 70 | 1017.4 |
| 20260903024514 | 86 | 336 | 0.0 | 0.0 | 0.00 | 0.00 | 0.00 | 67 | 1017.3 |
| 20260903024013 | 86 | 240 | 0.0 | 1.0 | 0.00 | 0.00 | 0.00 | 67 | 1017.4 |
| 20260903023509 | 87 | 174 | 0.0 | 2.0 | 0.00 | 0.00 | 0.00 | 66 | 1017.3 |
| 20260903023004 | 87 | 110 | 0.0 | 1.0 | 0.00 | 0.00 | 0.00 | 65 | 1017.2 |
| 20260903022504 | 87 | 216 | 1.0 | 2.0 | 0.00 | 0.00 | 0.00 | 67 | 1017.2 |
| 20260903022001 | 87 | 212 | 0.0 | 0.0 | 0.00 | 0.00 | 0.00 | 66 | 1017.0 |
| 20260903021457 | 88 | 161 | 0.0 | 3.0 | 0.00 | 0.00 | 0.00 | 63 | 1017.1 |
| 20260903020952 | 87 | 186 | 0.0 | 2.0 | 0.00 | 0.00 | 0.00 | 62 | 1017.2 |
| 20260903020448 | 87 | 246 | 0.0 | 1.0 | 0.00 | 0.00 | 0.00 | 62 | 1016.9 |
| 20260903015942 | 87 | 173 | 0.0 | 1.0 | 0.00 | 0.00 | 0.00 | 63 | 1017.0 |
| 20260903015438 | 87 | 212 | 0.0 | 2.0 | 0.00 | 0.00 | 0.00 | 64 | 1017.1 |
| 20260903014933 | 87 | 197 | 0.0 | 2.0 | 0.00 | 0.00 | 0.00 | 63 | 1016.9 |
| 20260903014432 | 88 | 142 | 0.0 | 2.0 | 0.00 | 0.00 | 0.00 | 63 | 1017.1 |
| 20260903013927 | 87 | 89 | 0.0 | 2.0 | 0.00 | 0.00 | 0.00 | 63 | 1016.9 |
| 20260903013427 | 87 | 209 | 0.0 | 2.0 | 0.00 | 0.00 | 0.00 | 63 | 1016.8 |
| 20260903012926 | 87 | 173 | 0.0 | 1.0 | 0.00 | 0.00 | 0.00 | 66 | 1016.7 |
| 20260903012426 | 86 | 50 | 0.0 | 1.0 | 0.00 | 0.00 | 0.00 | 66 | 1016.6 |
| 20260903011924 | 85 | 113 | 0.0 | 2.0 | 0.00 | 0.00 | 0.00 | 70 | 1016.6 |
| 20260903011420 | 86 | 142 | 0.0 | 1.0 | 0.00 | 0.00 | 0.00 | 69 | 1016.4 |
| 20260903010914 | 87 | 230 | 0.0 | 0.0 | 0.00 | 0.00 | 0.00 | 65 | 1016.5 |
| 20260903010410 | 87 | 150 | 0.0 | 1.0 | 0.00 | 0.00 | 0.00 | 68 | 1016.5 |
| 20260903005908 | 88 | 326 | 0.0 | 1.0 | 0.00 | 0.00 | 0.00 | 65 | 1016.3 |
| 20260903005403 | 88 | 124 | 0.0 | 2.0 | 0.00 | 0.00 | 0.00 | 65 | 1016.4 |
| 20260903004900 | 89 | 211 | 0.0 | 1.0 | 0.00 | 0.00 | 0.00 | 64 | 1016.5 |
| 20260903004355 | 89 | 217 | 0.0 | 1.0 | 0.00 | 0.00 | 0.00 | 64 | 1016.4 |
| 20260903003850 | 89 | 129 | 0.0 | 1.0 | 0.00 | 0.00 | 0.00 | 63 | 1016.3 |
| 20260903003344 | 89 | 154 | 0.0 | 1.0 | 0.00 | 0.00 | 0.00 | 63 | 1016.3 |
| 20260903002844 | 91 | 130 | 0.0 | 1.0 | 0.00 | 0.00 | 0.00 | 59 | 1016.3 |
| 20260903002339 | 92 | 269 | 0.0 | 1.0 | 0.00 | 0.00 | 0.00 | 59 | 1016.3 |
| 20260903001833 | 93 | 255 | 0.0 | 1.0 | 0.00 | 0.00 | 0.00 | 56 | 1016.2 |
| 20260903001329 | 94 | 230 | 0.0 | 1.0 | 0.00 | 0.00 | 0.00 | 55 | 1016.2 |
| 20260903000829 | 95 | 297 | 0.0 | 0.0 | 0.00 | 0.00 | 0.00 | 55 | 1016.3 |
| 20260903000325 | 95 | 269 | 0.0 | 0.0 | 0.00 | 0.00 | 0.00 | 54 | 1016.3 |
| 20260902235821 | 95 | 186 | 0.0 | 0.0 | 0.00 | 0.00 | 0.00 | 52 | 1016.4 |